Regional Weather Roundup
Issued by NWS Cleveland, OH

Home | Current Version | Previous Version | Text Only | Print | Product List | Glossary On
Versions: 1 2 3 4 5 6 7 8 9 10 11 12 13 14 15 16 17 18 19 20 21 22 23 24 25 26 27 28 29 30 31 32 33 34 35 36 37 38 39 40 41 42 43 44 45 46 47 48 49 50
000
ASUS41 KCLE 202012
RWRCLE
OHIO REGIONAL WEATHER ROUNDUP
NATIONAL WEATHER SERVICE WILMINGTON, OH
300 PM EST FRI JAN 20 2017

NOTE: "FAIR" INDICATES FEW OR NO CLOUDS BELOW 12,000 FEET WITH NO
SIGNIFICANT WEATHER AND/OR OBSTRUCTIONS TO VISIBILITY.

OHZ001>008-015>018-024>027-034-035-043-044-202100-
   NORTHWEST OHIO

CITY           SKY/WX    TMP DP  RH WIND       PRES   REMARKS
DEFIANCE       CLOUDY    44  43  96 W3        29.67R
FINDLAY        CLOUDY    52  48  86 W10       29.66R FOG
TOLEDO EXPRESS CLOUDY    44  44 100 W10       29.66R
TOLEDO EXEC    CLOUDY    46  45  96 W9        29.67R
LIMA           CLOUDY    54  51  90 W15       29.66R
$$

OHZ009>014-019>023-028>033-038-089-202100-
   NORTHEAST OHIO

CITY           SKY/WX    TMP DP  RH WIND       PRES   REMARKS
CLE-HOPKINS    DRIZZLE   53  49  86 SW7       29.69R FOG
CLE-LAKEFRONT  LGT RAIN  53  50  89 S7        29.65R FOG
CUY CO. ARPT   DRIZZLE   52  50  93 SW12      29.68R FOG
LORAIN-ELYRIA  CLOUDY    52  48  86 W13       29.66S
ASHTABULA      CLOUDY    48  48 100 S6        29.68S FOG
AKRON-CANTON   LGT RAIN  54  50  86 SW10      29.68R
WOOSTER        CLOUDY    54  50  86 SW10      29.67S
MANSFIELD      LGT RAIN  53  52  96 SW13      29.67R FOG
YOUNGSTOWN     CLOUDY    50  49  96 S6        29.70R FOG
$$

OHZ042-051>053-060>062-070>072-077>081-202100-
  SOUTHWEST OHIO

CITY           SKY/WX    TMP DP  RH WIND       PRES   REMARKS
CINC-COVINGTON FAIR      59  51  75 SW13      29.69F
CINC-LUNKEN    CLOUDY    62  52  69 SW15      29.70F
HAMILTON       PTSUNNY   62  52  69 SW10      29.70S
DAYTON         PTSUNNY   56  48  74 SW17G25   29.69S
WRIGHT-PAT AFB PTSUNNY   58  50  75 W10       29.68S
DAYTON GENERAL PTSUNNY   58  50  75 SW12      29.68S
WILMINGTON     CLOUDY    58  51  78 SW14      29.69S
$$

OHZ036-037-039>041-045>050-054>059-063>069-073>076-082>088-202100-
  CENTRAL AND SOUTHEAST OHIO

CITY           SKY/WX    TMP DP  RH WIND       PRES   REMARKS
COLUMBUS       CLOUDY    61  49  64 W13G22    29.69R
OSU AIRPORT    CLOUDY    59  52  77 SW14      29.69R
BOLTON FIELD   CLOUDY    57  52  82 SW14      29.70R
RICKENBACK AFB   N/A     58  53  81 SW13      29.70R
NEWARK         CLOUDY    59  51  75 SW12G20   29.69R
MARION         CLOUDY    55  52  89 SW10      29.67S
LANCASTER      CLOUDY    61  51  70 SW15G22   29.71R
ZANESVILLE     CLOUDY    61  50  67 W12G20    29.70R
NEW PHILLY     CLOUDY    58  52  80 SW5       29.69S
$$



USA.gov is the U.S. government's official web portal to all federal, state and local government web resources and services.